sat.trackr.live / text

‹ back to catalog

STARLINK-5575

NORAD 55381 · 2023-013BC

PAYLOAD ACTIVE UNKNOWN

§ Identity

Operator
Country
US
Launch date
2023-01-26
Launch site
AFETR
Launch vehicle
Mass (kg)
RCS (m²)

Purposes: comms

External: N2YO · Heavens-Above · Gunter

§ Orbital elements

Epoch: 2026-09-20T10:23:44.611872Z

Period
94.27 min
Inclination
43.0040°
Eccentricity
0.0001767
Mean motion
15.27573888 rev/d
Perigee alt
481.9 km
Apogee alt
484.3 km
Semi-major
6,861.2 km
B*
3.6063e-7
RAAN
298.5586°
Arg perigee
278.3362°
Mean anomaly
81.7289°
Rev number
20,128

§ Raw data

STARLINK-55751 55381U 23013BC  26263.43315523 -.00000252  00000+0  36063-6 0  99992 55381  43.0040 298.5586 0001767 278.3362  81.7289 15.27573888201282

JSON: /api/v1/satellites/55381 · /tle

For live sub-satellite position, see the globe view (requires WebGL).

§ Visibility from observer

Set your observer location to see the next 7 days of passes ≥ 10°. The values pass through the URL so the page stays shareable.

No JS? Fill the form by hand. The geolocation button needs JavaScript.